This is the latest recevied weather packets stored in our database for station/object W5ADC. If no packets are shown the sender has not sent any weather packets the latest 10 day(s).
| Time | Temp. | Humidity | Pressure | Rain* | Wind** | Luminosity | Snow |
|---|---|---|---|---|---|---|---|
| 1788139659 | 94° F | 40% | 757 mmHg | 0 in | - | 0 W/m² | - |
| 1788139355 | 94° F | 40% | 757 mmHg | 0 in | - | 0 W/m² | - |
| 1788139054 | 95° F | 39% | 757 mmHg | 0 in | - | 0 W/m² | - |
| 1788138750 | 95° F | 39% | 757 mmHg | 0 in | - | 0 W/m² | - |
| 1788138446 | 95° F | 39% | 757 mmHg | 0 in | - | 0 W/m² | - |
| 1788138146 | 95° F | 39% | 757 mmHg | 0 in | - | 1 W/m² | - |
| 1788137841 | 95° F | 38% | 756.7 mmHg | 0 in | - | 3 W/m² | - |
| 1788137536 | 95° F | 38% | 756.8 mmHg | 0 in | - | 5 W/m² | - |
| 1788137231 | 95° F | 38% | 756.8 mmHg | 0 in | - | 7 W/m² | - |
| 1788136928 | 95° F | 38% | 756.8 mmHg | 0 in | - | 11 W/m² | - |
| 1788136623 | 95° F | 38% | 756.7 mmHg | 0 in | - | 15 W/m² | - |
| 1788136319 | 96° F | 38% | 756.8 mmHg | 0 in | - | 19 W/m² | - |
| 1788136018 | 96° F | 38% | 756.7 mmHg | 0 in | - | 24 W/m² | - |
| 1788135712 | 96° F | 37% | 756.9 mmHg | 0 in | - | 31 W/m² | - |
| 1788135409 | 96° F | 37% | 756.9 mmHg | 0 in | - | 37 W/m² | - |
| 1788135103 | 96° F | 37% | 756.8 mmHg | 0 in | - | 42 W/m² | - |
| 1788134801 | 96° F | 37% | 757 mmHg | 0 in | - | 45 W/m² | - |
| 1788134500 | 97° F | 37% | 756.8 mmHg | 0 in | - | 48 W/m² | - |
| 1788134199 | 97° F | 37% | 757 mmHg | 0 in | - | 61 W/m² | - |
| 1788133894 | 97° F | 37% | 757 mmHg | 0 in | - | 71 W/m² | - |
| 1788133589 | 98° F | 36% | 757.1 mmHg | 0 in | - | 72 W/m² | - |
| 1788133285 | 98° F | 36% | 757 mmHg | 0 in | - | 98 W/m² | - |
| 1788132980 | 98° F | 36% | 757 mmHg | 0 in | - | 94 W/m² | - |
| 1788132676 | 98° F | 36% | 756.9 mmHg | 0 in | - | 99 W/m² | - |
| 1788132372 | 98° F | 36% | 757.1 mmHg | 0 in | - | 116 W/m² | - |
* Rain latest hour (hover to see other rain measurements)
** Current wind speed in m/s (hover to see current wind gust speed)